Home   Weather   Muktsar   Past weeks

Flag for India Past Weather in Muktsar, Punjab, India — Yesterday and Last 2 Weeks

Now
45 °F

Fog.


Feels Like: 41 °F
Forecast: 49 / 72 °F
Wind: 6 mph from East

Location: Lahore Airport

Current Time: Jan 22, 2017 at 7:34:19 am

Latest Report: Jan 22, 2017 at 6:25 am


Visibility: 2 mi

Pressure: 30.18 "Hg

Humidity: 87%

Dew Point: 41 °F

Location of MuktsarLocation

Past Weather in Muktsar — Graph

°F

Muktsar Temperature Yesterday

Maximum temperature yesterday: 64 °F (at 2:25 pm)
Minimum temperature yesterday: 45 °F (at 5:55 am)
Average temperature yesterday: 54 °F

High & Low Weather Summary for the Past Weeks

 TemperatureHumidityPressure
High68 °F (Jan 20, 4:25 pm)100% (Jan 16, 2:29 am)30.36 "Hg (Jan 16, 2:29 am)
Low36 °F (Jan 12, 7:25 am)22% (Jan 11, 3:55 pm)29.86 "Hg (Jan 7, 6:25 am)
Average52 °F68%30.09 "Hg
* Reported Jan 7 6:25 am — Jan 22 6:25 am, Muktsar, Weather by CustomWeather, © 2017

Note: Actual official high and low records may vary slightly from our data, if they occured in-between our weather recording intervals... More about our weather records

Advertising

Muktsar Weather History for the Previous 24 Hours

Scroll right to see more
 ConditionsComfort  
Time TempWeatherWind HumidityBarometerVisibility
6:25 am
Sun, Jan 22
45 °FFog.6 mph87%30.18 "Hg2 mi
5:55 am46 °FPassing clouds.6 mph76%30.18 "Hg2 mi
5:25 am46 °FPassing clouds.3 mph76%30.18 "Hg2 mi
4:55 am46 °FPassing clouds.3 mph76%30.18 "Hg2 mi
4:25 am46 °FPassing clouds.No wind76%30.18 "Hg2 mi
3:55 am46 °FPassing clouds.No wind82%30.18 "Hg2 mi
2:55 am48 °FPassing clouds.No wind76%30.18 "Hg2 mi
2:25 am48 °FPassing clouds.No wind76%30.18 "Hg2 mi
1:55 am50 °FPassing clouds.No wind71%30.15 "Hg2 mi
1:25 am52 °FPassing clouds.No wind72%30.15 "Hg2 mi
12:55 am54 °FPassing clouds.No wind72%30.15 "Hg2 mi
12:25 am54 °FPassing clouds.No wind72%30.18 "Hg2 mi
11:55 pm
Sat, Jan 21
55 °FPassing clouds.No wind67%30.18 "Hg2 mi
11:25 pm55 °FPassing clouds.No wind67%30.18 "Hg2 mi
10:55 pm55 °FPassing clouds.No wind67%30.18 "Hg2 mi
10:25 pm55 °FPassing clouds.No wind67%30.18 "Hg2 mi
9:55 pm55 °FPassing clouds.2 mph67%30.18 "Hg2 mi
8:55 pm55 °FPassing clouds.No wind67%30.15 "Hg2 mi
8:25 pm57 °FPassing clouds.No wind59%30.12 "Hg2 mi
7:55 pm57 °FPassing clouds.No wind59%30.12 "Hg2 mi
7:25 pm57 °FPassing clouds.3 mph59%30.12 "Hg2 mi
6:55 pm59 °FPassing clouds.5 mph48%30.12 "Hg2 mi
6:25 pm59 °FPassing clouds.5 mph48%30.12 "Hg2 mi
5:55 pm61 °FScattered clouds.5 mph45%30.12 "Hg2 mi
5:25 pm63 °FScattered clouds.3 mph42%30.12 "Hg2 mi
4:55 pm63 °FScattered clouds.5 mph77%30.12 "Hg2 mi
4:25 pm63 °FScattered clouds.7 mph39%30.12 "Hg2 mi
3:55 pm64 °FScattered clouds.5 mph34%30.12 "Hg2 mi
3:25 pm64 °FScattered clouds.6 mph34%30.12 "Hg2 mi
2:55 pm64 °FScattered clouds.6 mph40%30.12 "Hg2 mi
2:25 pm64 °FScattered clouds.7 mph40%30.12 "Hg2 mi
1:55 pm63 °FScattered clouds.6 mph39%30.12 "Hg1 mi
1:25 pm63 °FScattered clouds.6 mph39%30.15 "Hg1 mi
12:55 pm61 °FScattered clouds.7 mph45%30.15 "Hg1 mi
12:25 pm61 °FRefreshingly cool.7 mph45%30.18 "Hg1 mi
11:55 am57 °FRefreshingly cool.6 mph59%30.18 "Hg1 mi
11:25 am57 °FRefreshingly cool.6 mph59%30.18 "Hg1 mi
11:00 am55 °FCool.15 mph67%30.18 "HgN/A
10:25 am55 °FCool.No wind67%30.18 "Hg1 mi
9:55 am54 °FCool.No wind67%30.18 "Hg1 mi
9:25 am52 °FCool.No wind72%30.15 "Hg1 mi
8:55 am50 °FCool.5 mph71%30.15 "Hg1 mi
8:25 am48 °FCool.3 mph76%30.12 "Hg1 mi
7:55 am45 °FFog.No wind87%30.12 "Hg1 mi
7:25 am45 °FFog.No wind87%30.09 "Hg2 mi
Weather by CustomWeather, © 2017

See weather overviewHow to use our weather pages